G1CAE-13 Weather Reports


time (UTC)temp
C
wind
direction
speed
KPH
gust
KPH
rain 1hr
cm
rain 24hr
cm
rain mn
cm
humidity
%
barometer
mb
20260507230217 9 313 1.6 3.2 0.00 0.00 0.00 77 1013.5
20260507225403 9 343 1.6 3.2 0.00 0.00 0.00 77 1013.6
20260507224504 9 27 0.0 3.2 0.00 0.00 0.00 77 1013.5
20260507223603 10 301 1.6 9.7 0.00 0.00 0.00 76 1013.5
20260507222703 10 292 0.0 4.8 0.00 0.00 0.00 76 1013.4
20260507221803 10 318 0.0 3.2 0.00 0.00 0.00 75 1013.5
20260507220903 10 301 0.0 3.2 0.00 0.00 0.00 73 1013.5
20260507220003 10 306 0.0 4.8 0.00 0.00 0.00 73 1013.5
20260507215618 10 290 0.0 4.8 0.00 0.00 0.00 72 1013.4
20260507214718 10 252 1.6 4.8 0.00 0.00 0.00 72 1013.5
20260507213603 10 328 0.0 3.2 0.00 0.00 0.00 72 1013.5
20260507212703 10 345 0.0 3.2 0.00 0.00 0.00 71 1013.3
20260507211803 10 31 0.0 3.2 0.00 0.00 0.00 70 1013.3
20260507210903 10 290 0.0 1.6 0.00 0.00 0.00 69 1013.3
20260507210003 10 315 1.6 3.2 0.00 0.00 0.00 69 1013.2
20260507205403 10 341 0.0 3.2 0.00 0.00 0.00 69 1013.6
20260507204504 11 309 0.0 1.6 0.00 0.00 0.00 69 1013.2
20260507203603 11 309 0.0 1.6 0.00 0.00 0.00 68 1013.3
20260507202703 11 313 0.0 3.2 0.00 0.00 0.00 67 1013.2
20260507201803 11 315 0.0 1.6 0.00 0.00 0.00 67 1013.2
20260507200903 11 312 0.0 1.6 0.00 0.00 0.00 66 1013.0
20260507200003 11 314 0.0 3.2 0.00 0.00 0.00 65 1012.9
20260507195403 11 298 1.6 3.2 0.00 0.00 0.00 65 1013.0
20260507194503 11 300 1.6 4.8 0.00 0.00 0.00 64 1013.1
20260507193603 11 302 1.6 3.2 0.00 0.00 0.00 64 1012.8
20260507192703 11 301 0.0 3.2 0.00 0.00 0.00 64 1012.7
20260507192017 11 318 0.0 3.2 0.00 0.00 0.00 64 1013.0
20260507190903 11 314 0.0 3.2 0.00 0.00 0.00 63 1012.8
20260507190004 11 305 0.0 1.6 0.00 0.00 0.00 62 1012.9
20260507185403 12 300 0.0 3.2 0.00 0.00 0.00 61 1012.7
20260507184504 12 288 0.0 3.2 0.00 0.00 0.00 61 1012.8
20260507183603 12 293 1.6 3.2 0.00 0.00 0.00 60 1012.7
20260507182703 12 309 1.6 9.7 0.00 0.00 0.00 59 1012.6
20260507181803 12 299 1.6 6.4 0.00 0.00 0.00 58 1012.7
20260507180903 13 304 3.2 6.4 0.00 0.00 0.00 57 1012.5
20260507180004 13 305 3.2 11.3 0.00 0.00 0.00 57 1012.5
20260507175403 13 309 3.2 11.3 0.00 0.00 0.00 57 1012.7
20260507174718 13 308 3.2 9.7 0.00 0.00 0.00 59 1012.6
20260507173603 13 292 1.6 11.3 0.00 0.00 0.00 59 1012.5
20260507172703 13 298 3.2 9.7 0.00 0.00 0.00 59 1012.7
20260507172018 13 292 3.2 9.7 0.00 0.00 0.00 60 1012.8
20260507170903 13 283 3.2 6.4 0.00 0.00 0.00 60 1012.8
20260507170003 13 281 3.2 6.4 0.00 0.00 0.00 59 1012.9
20260507165403 13 279 3.2 9.7 0.00 0.00 0.00 61 1013.0
20260507164503 13 280 3.2 9.7 0.00 0.00 0.00 60 1013.1
20260507163603 13 281 4.8 9.7 0.00 0.00 0.00 60 1012.6
20260507162703 13 293 3.2 9.7 0.00 0.00 0.00 60 1012.9
20260507161803 13 298 3.2 6.4 0.00 0.00 0.00 61 1013.0
20260507160903 12 286 3.2 11.3 0.00 0.00 0.00 63 1012.9
20260507160003 13 295 1.6 9.7 0.00 0.00 0.00 62 1012.9
20260507155403 13 296 1.6 6.4 0.00 0.00 0.00 62 1013.0
20260507154718 13 293 1.6 9.7 0.00 0.00 0.00 61 1012.9
20260507153817 13 305 3.2 9.7 0.00 0.00 0.00 61 1012.8
20260507152703 13 294 3.2 9.7 0.00 0.00 0.00 61 1013.3
20260507151803 13 289 3.2 14.5 0.00 0.00 0.00 59 1012.9
20260507150903 13 306 3.2 11.3 0.00 0.00 0.00 60 1013.2
20260507150004 13 297 3.2 9.7 0.00 0.00 0.00 61 1013.2
20260507145618 13 300 3.2 9.7 0.00 0.00 0.00 62 1013.3
20260507144503 12 304 1.6 4.8 0.00 0.00 0.00 63 1013.1
20260507143603 12 297 1.6 6.4 0.00 0.00 0.00 66 1013.2
20260507142703 11 291 3.2 4.8 0.00 0.00 0.00 70 1013.4
20260507141803 11 294 1.6 4.8 0.00 0.00 0.00 70 1013.5
20260507141117 11 298 3.2 4.8 0.00 0.00 0.00 68 1013.5
20260507140004 11 287 1.6 4.8 0.00 0.00 0.00 65 1013.7
20260507135618 11 291 1.6 6.4 0.00 0.00 0.00 66 1013.7
20260507134503 11 302 1.6 4.8 0.00 0.00 0.00 68 1013.7
20260507133603 11 301 1.6 4.8 0.00 0.00 0.00 67 1013.7
20260507132917 11 296 1.6 4.8 0.00 0.00 0.00 66 1013.9
20260507131803 12 292 1.6 4.8 0.00 0.00 0.00 66 1013.8
20260507131118 12 294 1.6 4.8 0.00 0.00 0.00 66 1014.0
20260507130218 12 293 1.6 6.4 0.00 0.00 0.00 64 1014.1
20260507125403 12 289 3.2 6.4 0.00 0.00 0.00 62 1014.0
20260507124503 12 292 3.2 6.4 0.00 0.00 0.00 63 1014.0
20260507123603 12 296 3.2 11.3 0.00 0.00 0.00 59 1013.8
20260507122705 12 292 3.2 9.7 0.00 0.00 0.00 56 1014.0
20260507122018 13 285 4.8 11.3 0.00 0.00 0.00 54 1013.8
20260507120903 13 296 3.2 9.7 0.00 0.00 0.00 55 1013.5
20260507120004 13 291 3.2 9.7 0.00 0.00 0.00 54 1013.6
20260507115403 13 275 4.8 11.3 0.00 0.00 0.00 56 1013.8
20260507114503 13 286 4.8 11.3 0.00 0.00 0.00 54 1013.7
20260507113817 13 298 3.2 11.3 0.00 0.00 0.00 54 1013.8
20260507112703 13 301 3.2 9.7 0.00 0.00 0.00 55 1013.8
20260507111803 13 278 3.2 12.9 0.00 0.00 0.00 56 1013.6
20260507110903 13 300 4.8 12.9 0.00 0.00 0.00 57 1013.7
20260507110217 12 309 4.8 12.9 0.00 0.00 0.00 56 1013.9
20260507105403 13 281 3.2 14.5 0.00 0.00 0.00 58 1013.8
20260507104504 12 284 3.2 14.5 0.00 0.00 0.00 59 1013.8
20260507103817 12 287 3.2 11.3 0.00 0.00 0.00 61 1014.0
20260507102703 12 296 4.8 9.7 0.00 0.00 0.00 61 1014.0
20260507101803 12 303 1.6 9.7 0.00 0.00 0.00 60 1013.9
20260507100903 12 303 3.2 11.3 0.00 0.00 0.00 60 1013.8
20260507100003 12 284 1.6 4.8 0.00 0.00 0.00 60 1013.8
20260507095403 11 289 3.2 6.4 0.00 0.00 0.00 62 1014.1
20260507094503 11 292 1.6 9.7 0.00 0.00 0.00 61 1013.9
20260507093603 11 275 1.6 9.7 0.00 0.00 0.00 62 1013.9
20260507092703 11 284 1.6 3.2 0.00 0.00 0.00 63 1013.9
20260507091803 11 321 1.6 3.2 0.00 0.00 0.00 63 1013.7
20260507090903 10 302 1.6 6.4 0.00 0.00 0.00 63 1013.7
20260507090004 10 298 1.6 9.7 0.00 0.00 0.00 64 1013.7
20260507085403 10 301 1.6 9.7 0.00 0.00 0.00 64 1013.8
20260507084503 10 297 1.6 11.3 0.00 0.00 0.00 64 1013.9
20260507083603 10 291 3.2 11.3 0.00 0.00 0.00 64 1013.7
20260507082703 10 306 3.2 9.7 0.00 0.00 0.00 65 1013.7
20260507081803 10 305 3.2 9.7 0.00 0.00 0.00 66 1013.5
20260507081118 10 304 3.2 9.7 0.00 0.00 0.00 66 1013.5
20260507080004 10 300 3.2 6.4 0.00 0.00 0.00 66 1013.3
20260507075403 10 304 1.6 4.8 0.00 0.00 0.00 66 1013.5
20260507074503 10 287 1.6 4.8 0.00 0.00 0.00 64 1013.4
20260507073603 10 306 1.6 4.8 0.00 0.00 0.00 64 1013.3
20260507072917 10 6 0.0 3.2 0.00 0.00 0.00 64 1013.4
20260507071803 10 46 1.6 4.8 0.00 0.00 0.00 65 1013.3
20260507071118 10 22 1.6 4.8 0.00 0.00 0.00 65 1013.3
20260507070006 10 47 1.6 4.8 0.00 0.00 0.00 65 1013.4
20260507065403 10 12 1.6 4.8 0.00 0.00 0.00 66 1013.3
20260507064503 10 18 1.6 6.4 0.00 0.00 0.00 66 1013.3
20260507063603 9 337 1.6 6.4 0.00 0.00 0.00 68 1013.4
20260507062703 9 316 1.6 6.4 0.00 0.00 0.00 69 1013.3
20260507062018 9 330 1.6 6.4 0.00 0.00 0.00 69 1013.4
20260507060903 9 10 1.6 9.7 0.00 0.00 0.00 69 1013.3
20260507060003 8 338 1.6 4.8 0.00 0.00 0.00 69 1013.4
20260507055403 8 335 1.6 4.8 0.00 0.00 0.00 69 1013.5
20260507054503 8 290 0.0 4.8 0.00 0.00 0.00 70 1013.4
20260507053603 8 25 1.6 6.4 0.00 0.00 0.00 70 1013.3
20260507052703 8 3 1.6 4.8 0.00 0.00 0.00 71 1013.3
20260507051803 7 337 1.6 9.7 0.00 0.00 0.00 71 1013.2
20260507051117 7 336 1.6 4.8 0.00 0.00 0.00 72 1013.2
20260507050003 7 346 1.6 4.8 0.00 0.00 0.00 73 1013.3
20260507045403 6 325 1.6 6.4 0.00 0.00 0.00 73 1013.2
20260507044503 6 323 1.6 6.4 0.00 0.00 0.00 74 1013.2
20260507043817 6 330 1.6 4.8 0.00 0.00 0.00 74 1013.2
20260507042703 6 359 1.6 6.4 0.00 0.00 0.00 73 1013.2
20260507041803 6 320 1.6 4.8 0.00 0.00 0.00 74 1013.0
20260507040903 6 345 1.6 3.2 0.00 0.00 0.00 73 1013.0
20260507040004 6 317 1.6 3.2 0.00 0.00 0.00 73 1013.3
20260507035403 6 332 0.0 3.2 0.00 0.00 0.00 73 1013.3
20260507034503 6 349 0.0 3.2 0.00 0.00 0.00 73 1013.4
20260507033603 6 338 0.0 3.2 0.00 0.00 0.00 73 1013.3
20260507032703 6 4 0.0 3.2 0.00 0.00 0.00 73 1013.3
20260507031803 6 349 0.0 1.6 0.00 0.00 0.00 72 1013.2
20260507030903 6 337 0.0 3.2 0.00 0.00 0.00 72 1013.5
20260507030003 7 312 1.6 3.2 0.00 0.00 0.00 71 1013.6
20260507025403 7 301 1.6 4.8 0.00 0.00 0.00 71 1013.5
20260507024717 7 299 1.6 6.4 0.00 0.00 0.00 71 1013.7
20260507023603 7 314 0.0 3.2 0.00 0.00 0.00 71 1013.5
20260507022703 7 351 0.0 3.2 0.00 0.00 0.00 71 1013.6
20260507021803 7 318 0.0 3.2 0.00 0.00 0.00 70 1013.4
20260507020903 7 337 1.6 3.2 0.00 0.00 0.00 69 1013.7
20260507020003 7 321 1.6 6.4 0.00 0.00 0.00 69 1013.5
20260507015403 7 307 1.6 3.2 0.00 0.00 0.00 69 1013.6
20260507014503 7 328 1.6 3.2 0.00 0.00 0.00 69 1013.7
20260507013818 7 298 1.6 4.8 0.00 0.00 0.00 68 1013.7
20260507012703 7 312 1.6 4.8 0.00 0.00 0.00 68 1013.8
20260507012018 7 326 0.0 4.8 0.00 0.00 0.00 68 1013.4
20260507011118 7 329 0.0 4.8 0.00 0.00 0.00 68 1013.6
20260507010004 7 312 0.0 3.2 0.00 0.00 0.00 67 1013.6
20260507005403 7 354 0.0 3.2 0.00 0.00 0.00 68 1013.6
20260507004503 6 67 0.0 1.6 0.00 0.00 0.00 72 1013.7
20260507003603 6 67 0.0 3.2 0.00 0.00 0.00 71 1013.8
20260507002703 6 67 0.0 1.6 0.00 0.00 0.00 71 1013.7
20260507001803 6 67 0.0 1.6 0.00 0.00 0.00 72 1013.8
20260507000903 6 67 0.0 1.6 0.00 0.00 0.00 75 1013.8
20260507000004 6 0 0.0 0.0 0.00 0.00 0.00 75 1014.0
20260506235618 6 67 0.0 1.6 0.00 0.00 0.00 74 1013.9
20260506234503 6 67 0.0 1.6 0.00 0.00 0.00 74 1013.9
20260506233603 6 76 0.0 3.2 0.00 0.00 0.00 76 1014.1
20260506232918 6 82 0.0 1.6 0.00 0.00 0.00 77 1014.1
20260506231803 5 71 1.6 3.2 0.00 0.00 0.00 78 1013.9
20260506230903 5 71 1.6 3.2 0.00 0.00 0.00 78 1013.9